EW7067 Weather Reports


time (UTC)temp
C
wind
direction
speed
KPH
gust
KPH
rain 1hr
cm
rain 24hr
cm
rain mn
cm
humidity
%
barometer
mb
20260906071558 19 311 0.0 0.0 0.00 0.00 0.00 68 967.3
20260906071052 19 311 0.0 0.0 0.00 0.00 0.00 68 967.3
20260906070545 19 311 0.0 0.0 0.00 0.00 0.00 68 967.6
20260906070039 19 311 0.0 0.0 0.00 0.00 0.00 68 967.6
20260906065533 20 311 0.0 0.0 0.00 0.00 0.00 68 967.5
20260906065028 19 311 0.0 0.0 0.00 0.00 0.00 68 967.6
20260906064521 20 311 0.0 0.0 0.00 0.00 0.00 68 967.9
20260906064015 20 311 0.0 0.0 0.00 0.00 0.00 68 967.9
20260906063509 20 311 0.0 0.0 0.00 0.00 0.00 68 967.9
20260906063003 20 311 0.0 0.0 0.00 0.00 0.00 68 968.1
20260906062458 20 311 0.0 0.0 0.00 0.00 0.00 68 968.2
20260906061949 20 311 0.0 0.0 0.00 0.00 0.00 68 968.3
20260906061443 20 311 0.0 0.0 0.00 0.00 0.00 68 968.4
20260906060937 20 311 0.0 0.0 0.00 0.00 0.00 68 968.4
20260906060431 20 311 0.0 0.0 0.00 0.00 0.00 68 968.5
20260906055926 20 311 0.0 0.0 0.00 0.00 0.00 68 968.5
20260906055419 20 311 0.0 0.0 0.00 0.00 0.00 68 968.4
20260906054913 20 311 0.0 0.0 0.00 0.00 0.00 68 968.5
20260906054406 20 311 0.0 0.0 0.00 0.00 0.00 68 968.5
20260906053902 20 311 0.0 0.0 0.00 0.00 0.00 68 968.5
20260906053354 20 311 0.0 0.0 0.00 0.00 0.00 68 968.6
20260906052848 20 311 0.0 0.0 0.00 0.00 0.00 68 968.5
20260906052342 20 311 0.0 0.0 0.00 0.00 0.00 68 968.5
20260906051837 20 311 0.0 0.0 0.00 0.00 0.00 68 968.7
20260906051330 20 311 0.0 0.0 0.00 0.00 0.00 69 968.8
20260906050333 20 311 0.0 0.0 0.00 0.00 0.00 69 968.7
20260905171534 32 339 6.4 16.1 0.00 0.00 0.00 67 969.3
20260905171029 33 305 6.4 14.5 0.00 0.00 0.00 67 969.1
20260905170522 33 317 4.8 14.5 0.00 0.00 0.00 63 969.2
20260905170015 33 5 4.8 14.5 0.00 0.00 0.00 65 969.3
20260905165512 33 302 6.4 17.7 0.00 0.00 0.00 64 969.4
20260905165004 33 347 4.8 17.7 0.00 0.00 0.00 65 969.6
20260905163951 33 207 4.8 17.7 0.00 0.00 0.00 62 969.6
20260905163447 33 273 6.4 14.5 0.00 0.00 0.00 62 969.6
20260905162939 33 305 4.8 14.5 0.00 0.00 0.00 65 969.6
20260905161928 33 28 1.6 6.4 0.00 0.00 0.00 62 969.6
20260905161422 34 29 1.6 6.4 0.00 0.00 0.00 63 969.6
20260905160916 33 29 1.6 8.0 0.00 0.00 0.00 65 969.7
20260905160410 33 29 3.2 11.3 0.00 0.00 0.00 64 969.9
20260905155904 33 30 1.6 11.3 0.00 0.00 0.00 66 969.9
20260905155358 33 304 1.6 4.8 0.00 0.00 0.00 65 969.9
20260905154852 33 304 1.6 8.0 0.00 0.00 0.00 65 970.0
20260905154346 33 308 1.6 8.0 0.00 0.00 0.00 67 969.9
20260905153840 33 308 1.6 6.4 0.00 0.00 0.00 70 969.9
20260905153334 33 308 1.6 11.3 0.00 0.00 0.00 67 969.8
20260905152828 32 254 3.2 11.3 0.00 0.00 0.00 71 969.7
20260905152322 32 321 3.2 8.0 0.00 0.00 0.00 70 969.7
20260905151816 32 322 4.8 11.3 0.00 0.00 0.00 68 969.7
20260905150803 32 323 1.6 6.4 0.00 0.00 0.00 72 969.7
20260905150259 32 310 1.6 4.8 0.00 0.00 0.00 74 969.7
20260905145751 32 310 1.6 4.8 0.00 0.00 0.00 74 969.7
20260905145246 32 315 1.6 4.8 0.00 0.00 0.00 75 969.8
20260905144740 31 311 1.6 6.4 0.00 0.00 0.00 75 969.8
20260905144234 31 311 1.6 6.4 0.00 0.00 0.00 76 969.9
20260905143223 31 5 1.6 4.8 0.00 0.00 0.00 76 970.0
20260905142716 31 5 1.6 4.8 0.00 0.00 0.00 77 969.9
20260905141706 30 114 0.0 1.6 0.00 0.00 0.00 80 969.8
20260905141158 30 114 0.0 3.2 0.00 0.00 0.00 79 969.8
20260905140146 29 114 0.0 3.2 0.00 0.00 0.00 81 969.7
20260905135640 28 114 0.0 3.2 0.00 0.00 0.00 82 969.6
20260905135134 28 42 0.0 1.6 0.00 0.00 0.00 84 969.7
20260905134122 27 42 0.0 3.2 0.00 0.00 0.00 84 969.9
20260905133110 27 42 0.0 0.0 0.00 0.00 0.00 84 970.1
20260905132604 26 42 0.0 0.0 0.00 0.00 0.00 82 970.1
20260905132058 26 42 0.0 0.0 0.00 0.00 0.00 79 970.1
20260905131552 25 42 0.0 0.0 0.00 0.00 0.00 74 970.1
20260905131046 24 42 0.0 0.0 0.00 0.00 0.00 70 970.1
20260905130540 24 42 0.0 0.0 0.00 0.00 0.00 67 970.2
20260905130034 23 42 0.0 0.0 0.00 0.00 0.00 66 970.2
20260905125528 23 42 0.0 0.0 0.00 0.00 0.00 66 970.2
20260905125022 22 42 0.0 0.0 0.00 0.00 0.00 66 970.2
20260905124516 22 42 0.0 0.0 0.00 0.00 0.00 67 970.2
20260905124010 21 42 0.0 0.0 0.00 0.00 0.00 67 970.2
20260905123504 21 42 0.0 0.0 0.00 0.00 0.00 67 970.2
20260905123000 21 42 0.0 0.0 0.00 0.00 0.00 67 970.1
20260905122456 21 42 0.0 0.0 0.00 0.00 0.00 68 970.2
20260905121457 20 42 0.0 0.0 0.00 0.00 0.00 68 970.0
20260905120957 20 42 0.0 0.0 0.00 0.00 0.00 68 970.0
20260905120456 20 42 0.0 0.0 0.00 0.00 0.00 68 970.0
20260905115955 20 42 0.0 0.0 0.00 0.00 0.00 69 969.9
20260905114955 20 42 0.0 0.0 0.00 0.00 0.00 69 969.9
20260905114454 20 42 0.0 0.0 0.00 0.00 0.00 69 969.9
20260905113950 20 42 0.0 0.0 0.00 0.00 0.00 69 969.9
20260905113448 20 42 0.0 0.0 0.00 0.00 0.00 69 969.8
20260905112948 20 42 0.0 0.0 0.00 0.00 0.00 69 969.8
20260905112447 20 42 0.0 0.0 0.00 0.00 0.00 69 969.6
20260905111945 20 42 0.0 0.0 0.00 0.00 0.00 69 969.5
20260905111443 20 42 0.0 0.0 0.00 0.00 0.00 69 969.6
20260905110943 20 42 0.0 0.0 0.00 0.00 0.00 69 969.5
20260905105938 20 42 0.0 0.0 0.00 0.00 0.00 70 969.4
20260905104939 20 42 0.0 0.0 0.00 0.00 0.00 69 969.2
20260905104438 20 42 0.0 0.0 0.00 0.00 0.00 69 969.3
20260905103938 20 42 0.0 0.0 0.00 0.00 0.00 70 969.3
20260905103439 20 42 0.0 0.0 0.00 0.00 0.00 70 969.4
20260905102938 20 42 0.0 0.0 0.00 0.00 0.00 69 969.4
20260905102440 20 42 0.0 0.0 0.00 0.00 0.00 70 969.4
20260905101939 20 42 0.0 0.0 0.00 0.00 0.00 70 969.3
20260905101440 20 42 0.0 0.0 0.00 0.00 0.00 70 969.2
20260905100439 20 42 0.0 0.0 0.00 0.00 0.00 70 969.2
20260905095938 20 42 0.0 0.0 0.00 0.00 0.00 70 969.2
20260905094938 20 42 0.0 0.0 0.00 0.00 0.00 71 969.1
20260905094438 20 42 0.0 0.0 0.00 0.00 0.00 71 969.0
20260905093939 20 42 0.0 0.0 0.00 0.00 0.00 71 969.1
20260905092938 20 42 0.0 0.0 0.00 0.00 0.00 71 969.1
20260905092439 20 42 0.0 0.0 0.00 0.00 0.00 71 969.1
20260905091939 20 42 0.0 0.0 0.00 0.00 0.00 72 969.0
20260905091439 20 42 0.0 0.0 0.00 0.00 0.00 72 969.0
20260905090938 20 42 0.0 0.0 0.00 0.00 0.00 71 969.1
20260905090438 20 42 0.0 0.0 0.00 0.00 0.00 71 969.0
20260905085939 20 42 0.0 0.0 0.00 0.00 0.00 71 969.1
20260905085438 20 42 0.0 0.0 0.00 0.00 0.00 71 969.1
20260905084433 20 42 0.0 0.0 0.00 0.00 0.00 72 969.2
20260905083927 20 42 0.0 0.0 0.00 0.00 0.00 72 969.3
20260905083422 20 42 0.0 0.0 0.00 0.00 0.00 72 969.3
20260905082915 20 42 0.0 0.0 0.00 0.00 0.00 72 969.4
20260905082409 20 42 0.0 0.0 0.00 0.00 0.00 73 969.5
20260905081904 20 42 0.0 0.0 0.00 0.00 0.00 73 969.4
20260905080852 21 42 0.0 0.0 0.00 0.00 0.00 73 969.6
20260905080345 21 42 0.0 0.0 0.00 0.00 0.00 73 969.6
20260905075838 21 42 0.0 0.0 0.00 0.00 0.00 73 969.7
20260905074321 21 42 0.0 0.0 0.00 0.00 0.00 75 969.8
20260905073816 21 42 0.0 0.0 0.00 0.00 0.00 74 969.8
20260905072803 21 42 0.0 0.0 0.00 0.00 0.00 74 969.7